SP5QWJ-2 Weather Reports


time (UTC)temp
C
wind
direction
speed
KPH
gust
KPH
rain 1hr
cm
rain 24hr
cm
rain mn
cm
humidity
%
barometer
mb
20260504140959 27 0.0 0.0 0.00 0.00 0.00 31 1010.1
20260504080525 27 0.0 0.0 0.00 0.00 0.00 35 1012.6
20260504050308 17 0.0 0.0 0.00 0.00 0.00 47 1012.5
20260504044757 16 0.0 0.0 0.00 0.00 0.00 48 1012.4
20260504043245 16 0.0 0.0 0.00 0.00 0.00 49 1012.2
20260504041735 15 0.0 0.0 0.00 0.00 0.00 50 1012.2
20260504040224 15 0.0 0.0 0.00 0.00 0.00 50 1012.2
20260504031651 15 0.0 0.0 0.00 0.00 0.00 50 1012.2
20260504030140 15 0.0 0.0 0.00 0.00 0.00 51 1012.2
20260504024629 15 0.0 0.0 0.00 0.00 0.00 51 1012.2
20260504023119 15 0.0 0.0 0.00 0.00 0.00 52 1012.2
20260504021608 15 0.0 0.0 0.00 0.00 0.00 52 1012.3
20260504020057 15 0.0 0.0 0.00 0.00 0.00 54 1012.4
20260504014546 15 0.0 0.0 0.00 0.00 0.00 57 1012.3
20260504013034 15 0.0 0.0 0.00 0.00 0.00 57 1012.4
20260504011520 15 0.0 0.0 0.00 0.00 0.00 58 1012.4
20260504010010 14 0.0 0.0 0.00 0.00 0.00 60 1012.3
20260504004458 14 0.0 0.0 0.00 0.00 0.00 60 1012.3
20260504002948 14 0.0 0.0 0.00 0.00 0.00 59 1012.3
20260504001436 14 0.0 0.0 0.00 0.00 0.00 59 1012.3
20260503235925 14 0.0 0.0 0.00 0.00 0.00 58 1012.3
20260503234414 14 0.0 0.0 0.00 0.00 0.00 58 1012.4
20260503232903 14 0.0 0.0 0.00 0.00 0.00 57 1012.4
20260503231350 15 0.0 0.0 0.00 0.00 0.00 55 1012.5
20260503225839 15 0.0 0.0 0.00 0.00 0.00 54 1012.5
20260503224328 15 0.0 0.0 0.00 0.00 0.00 53 1012.5
20260503222818 15 0.0 0.0 0.00 0.00 0.00 52 1012.6
20260503221306 16 0.0 0.0 0.00 0.00 0.00 51 1012.6
20260503215755 16 0.0 0.0 0.00 0.00 0.00 51 1012.6
20260503214244 16 0.0 0.0 0.00 0.00 0.00 51 1012.6
20260503212733 16 0.0 0.0 0.00 0.00 0.00 50 1012.6
20260503211222 16 0.0 0.0 0.00 0.00 0.00 49 1012.7
20260503205710 16 0.0 0.0 0.00 0.00 0.00 48 1012.7
20260503204211 17 0.0 0.0 0.00 0.00 0.00 47 1012.8
20260503202659 17 0.0 0.0 0.00 0.00 0.00 46 1012.6
20260503201148 17 0.0 0.0 0.00 0.00 0.00 45 1012.6
20260503195637 17 0.0 0.0 0.00 0.00 0.00 44 1012.5
20260503194125 18 0.0 0.0 0.00 0.00 0.00 43 1012.6
20260503192615 18 0.0 0.0 0.00 0.00 0.00 42 1012.7
20260503191102 18 0.0 0.0 0.00 0.00 0.00 40 1012.7
20260503185551 19 0.0 0.0 0.00 0.00 0.00 39 1012.6
20260503184040 19 0.0 0.0 0.00 0.00 0.00 38 1012.6
20260503182529 20 0.0 0.0 0.00 0.00 0.00 36 1012.5
20260503175506 22 0.0 0.0 0.00 0.00 0.00 32 1012.4
20260503173955 22 0.0 0.0 0.00 0.00 0.00 31 1012.3
20260503172444 23 0.0 0.0 0.00 0.00 0.00 29 1012.4
20260503170933 24 0.0 0.0 0.00 0.00 0.00 28 1012.4